[Date Prev][Date Next][Thread Prev][Thread Next] - [Date Index][Thread Index][Author Index]
2 Line ISS Keps 4-11
- Subject: [sarex] 2 Line ISS Keps 4-11
- From: "Dave Larsen PhD" <doc@xxxxxxxxxxx>
- Date: Mon, 11 Apr 2005 04:18:24 -0700
ISS
1 25544U 98067A 05101.42223690 .00017333 00000-0 14001-3 0 2185
2 25544 051.6451 242.6402 0006390 000.8349 053.0976 15.70942472365180
----
Via the sarex mailing list at AMSAT.ORG courtesy of AMSAT-NA.
To unsubscribe, send "unsubscribe sarex" to Majordomo@amsat.org
AMSAT Home